EIN5ML LFBO-EIDW

Flight info

Callsign EIN5ML
Flight time N/A
Altitude 36000
Route LACOU7A/14L LACOU DCT CHALA DCT CNA DCT MANAK DCT MUREL DCT NOZHU/N0427F350 DCT SHIRI/N0429F360 DCT UNFIT DCT PENWU DCT NICXI DCT LEMGU M17 VATRY VATRY4L
Aircraft A320/M-SDE3FGHIRWY/LB1

Departure

Time 2026-04-30 14:58
Airport Toulouse-Blagnac Airport (LFBO)

Arrival

Time N/A
Airport Dublin Airport (EIDW)
Time Latitude Longitude Altitude Speed Heading
2026-04-30 14:41 43.63272 1.36918 491 ft 0 kts 144°
2026-04-30 14:50 43.63290 1.36899 486 ft 4 kts 144°
2026-04-30 14:50 43.63313 1.36878 483 ft 4 kts 144°
2026-04-30 14:51 43.63357 1.36835 485 ft 4 kts 145°
2026-04-30 14:51 43.63378 1.36815 484 ft 2 kts 146°
2026-04-30 14:51 43.63380 1.36814 485 ft 0 kts 146°
2026-04-30 14:54 43.63374 1.36819 490 ft 5 kts 147°
2026-04-30 14:54 43.63295 1.36734 491 ft 15 kts 234°
2026-04-30 14:55 43.63315 1.36513 494 ft 13 kts 323°
2026-04-30 14:55 43.63386 1.36440 488 ft 13 kts 323°
2026-04-30 14:55 43.63513 1.36307 487 ft 11 kts 323°
2026-04-30 14:56 43.63753 1.36060 490 ft 25 kts 322°
2026-04-30 14:56 43.63739 1.35795 489 ft 12 kts 223°
2026-04-30 14:57 43.63676 1.35821 486 ft 9 kts 143°
2026-04-30 14:57 43.63174 1.36348 488 ft 109 kts 143°
2026-04-30 14:58 43.61494 1.38081 1089 ft 162 kts 143°
2026-04-30 14:58 43.60590 1.39012 1826 ft 163 kts 142°
2026-04-30 14:58 43.58557 1.41129 2521 ft 205 kts 142°
2026-04-30 14:59 43.55771 1.42801 3546 ft 236 kts 175°
2026-04-30 15:00 43.51620 1.39180 5709 ft 278 kts 256°
2026-04-30 15:00 43.52841 1.34338 7533 ft 287 kts 321°
2026-04-30 15:01 43.56258 1.31466 9312 ft 291 kts 328°
2026-04-30 15:01 43.58035 1.30074 10165 ft 295 kts 329°
2026-04-30 15:01 43.61859 1.27047 10874 ft 335 kts 328°
2026-04-30 15:02 43.63875 1.25428 11490 ft 343 kts 328°
2026-04-30 15:02 43.65960 1.23744 12212 ft 349 kts 328°
2026-04-30 15:03 43.72333 1.18582 14348 ft 361 kts 327°
2026-04-30 15:03 43.76699 1.15027 15652 ft 367 kts 327°
2026-04-30 15:04 43.81132 1.11407 16970 ft 373 kts 327°
2026-04-30 15:04 43.87921 1.05873 18748 ft 384 kts 327°
2026-04-30 15:05 43.94917 1.00145 20445 ft 392 kts 326°
2026-04-30 15:06 43.99625 0.96289 21577 ft 397 kts 326°
2026-04-30 15:06 44.04416 0.92348 22652 ft 404 kts 326°
2026-04-30 15:07 44.09309 0.88319 23670 ft 411 kts 325°
2026-04-30 15:07 44.14227 0.84267 24567 ft 414 kts 325°
2026-04-30 15:08 44.19216 0.80150 25458 ft 417 kts 325°
2026-04-30 15:08 44.26760 0.73901 26679 ft 424 kts 325°
2026-04-30 15:09 44.31850 0.69671 27462 ft 427 kts 324°
2026-04-30 15:09 44.36941 0.65422 28217 ft 430 kts 324°
2026-04-30 15:10 44.42107 0.61115 28984 ft 434 kts 325°
2026-04-30 15:11 44.52685 0.52274 30148 ft 448 kts 326°
2026-04-30 15:11 44.58021 0.47799 30703 ft 451 kts 326°
2026-04-30 15:12 44.66153 0.40952 31361 ft 458 kts 327°
2026-04-30 15:13 44.71634 0.36319 31962 ft 457 kts 327°
2026-04-30 15:14 44.82436 0.27175 33367 ft 452 kts 326°
2026-04-30 15:14 44.90487 0.20347 34342 ft 448 kts 326°
2026-04-30 15:16 45.03777 0.08995 35560 ft 447 kts 327°
2026-04-30 15:17 45.14394 -0.00104 36114 ft 442 kts 327°
2026-04-30 15:19 45.35425 -0.18280 36108 ft 444 kts 327°